Location: Zagreb
(45.8000°N, 16.0000°E)
Time: 13:30:21
(UTC+02:00)

Envisat - Pass Details

Date: 27 January 2022
Orbit: 764 x 765 km, 98.2° (Epoch: 22 May)

Event Time Altitude Azimuth Distance (km) Brightness Sun altitude
Rises 04:39:43 0° 16° (NNE) 3,241 6.5 -28.5°
Reaches altitude 10° 04:42:03 10° 19° (NNE) 2,310 5.7 -28.1°
Maximum altitude 04:47:07 65° 101° (E) 844 3.3 -27.2°
Drops below altitude 10° 04:52:08 10° 183° (S) 2,295 5.4 -26.4°
Sets 04:54:27 0° 187° (S) 3,217 6.2 -26.0°
